Terug naar catalogus

NEIMENGGU 1

ActiefWetenschapSSO
NORAD 49003·PAYLOAD·🇨🇳 China
Deze satellietnaam is nog niet bevestigd door officiële bronnen.

Gelanceerd Jul 3, 2021 vanaf Taiyuan Satellite Launch Center

Loading…

Volgende Passages (komende 24 uur)

TLE

VersSource: Space-Track

Epoch: Sep 14, 2026, 15:22 UTC

1 49003U 21061A   26257.64030977  .00001238  00000-0  79919-4 0  9997
2 49003  97.5143 332.1504 0008258 108.0953 252.1177 15.10047429286840

Volg NEIMENGGU 1 in realtime met AllMySat

Download on the App Store